Theta_e
312 309 307 305 304 302 300 300 298 297 302 305 306 302 291 289 289 289 288 288 287 286 285 285 284 284 283 282 281 281 280 280 280 280 279 278 277 277 276 276 275 274 274
307 304 302 300 299 300 299 298 298 306 307 304 301 291 289 289 289 288 288 287 286 286 285 284 284 283 282 281 281 280 280 279 279 279 278 277 276 276 275 275 275 274 273
300 301 299 301 300 301 300 303 303 303 303 299 291 289 289 288 288 288 287 286 286 285 285 284 283 283 282 281 281 280 279 279 278 277 277 276 276 275 274 274 273 274 272
300 300 300 298 301 301 302 303 302 302 297 291 290 289 289 288 288 287 286 286 285 285 284 284 283 283 282 281 281 280 279 278 278 277 277 276 275 274 274 273 272 272 272
300 299 299 301 301 301 302 303 301 295 291 290 289 289 288 288 287 287 286 286 285 285 284 284 283 283 282 281 280 280 279 278 278 277 277 276 275 274 273 272 271 271 271
301 301 301 301 301 303 301 297 293 291 290 289 288 288 288 287 287 287 286 285 285 285 284 284 283 283 282 281 280 280 280 279 278 277 277 275 275 273 272 271 271 270 271
302 302 301 300 301 299 296 293 291 290 290 289 288 288 288 287 286 286 285 285 285 285 284 284 283 283 282 281 281 281 281 281 280 278 276 275 274 273 271 271 270 270 269
302 302 301 301 300 296 293 292 292 291 290 289 289 288 287 287 286 285 285 284 284 284 284 284 283 282 282 281 281 280 280 280 280 279 277 276 274 273 271 270 269 267 266
301 301 302 300 297 295 293 292 291 291 290 289 288 288 287 289 287 286 284 283 283 284 284 284 284 283 283 281 280 280 279 279 278 277 276 275 273 272 271 269 268 265 265
299 299 298 297 295 294 293 292 292 291 290 289 289 289 288 287 287 285 284 283 283 283 283 283 283 283 282 282 281 280 278 278 278 277 276 274 271 271 269 267 266 264 263
295 296 295 295 294 294 295 293 291 291 289 288 287 288 288 288 288 287 285 283 283 282 282 282 282 283 282 282 282 280 279 279 278 277 276 273 271 270 268 266 265 264 262
291 292 292 292 291 291 290 289 289 288 287 288 288 288 289 288 287 287 285 284 283 283 282 282 282 283 282 281 282 282 281 280 278 276 275 272 271 269 267 266 265 264 263
289 289 289 289 289 289 290 290 289 288 286 285 284 283 285 287 287 286 285 284 282 283 282 282 282 282 282 281 282 282 282 281 278 274 273 273 271 269 266 265 264 264 263
285 285 285 285 285 285 285 284 284 284 284 284 284 283 283 283 283 283 282 281 281 281 281 280 280 281 282 282 281 280 281 280 279 275 273 272 270 266 265 264 263 263 262
280 280 280 281 281 281 282 281 282 283 282 281 281 281 280 280 281 281 282 282 282 282 282 280 280 280 278 280 281 280 279 279 276 273 272 270 267 265 264 263 263 261 259
279 278 278 278 278 278 278 281 280 280 280 280 280 281 281 281 282 282 282 283 283 283 284 283 281 278 278 279 278 277 277 275 274 273 270 268 266 264 263 262 261 260 258
276 275 276 276 276 275 275 274 275 280 277 278 277 277 277 277 278 279 280 280 281 281 282 282 284 282 278 278 277 275 274 273 271 270 268 267 265 264 262 261 260 259 258
275 274 273 273 273 273 273 273 272 271 271 274 277 274 274 275 275 276 276 277 277 277 278 279 280 282 279 278 276 275 273 270 270 269 268 266 265 263 261 260 259 258 258
272 272 272 272 271 271 270 270 269 269 269 269 270 271 271 271 272 273 274 273 273 273 273 274 275 277 279 277 276 274 272 270 269 268 266 265 264 263 261 260 259 258 258
270 269 269 269 269 268 268 267 267 267 267 267 267 268 268 270 271 269 269 270 270 270 270 271 272 273 274 275 275 273 270 268 267 265 265 264 263 262 261 260 258 258 258
268 268 268 267 266 265 265 264 264 264 265 265 265 265 268 268 266 266 266 267 267 267 268 269 269 269 270 271 272 271 268 266 265 264 265 264 263 261 260 259 259 258 258
267 266 266 265 264 264 264 263 263 263 263 263 263 263 265 264 264 265 265 265 265 266 266 266 266 266 267 268 269 269 267 265 264 265 264 263 262 261 260 259 258 257 257
266 265 265 264 263 263 262 262 262 262 262 262 262 262 262 262 263 263 263 263 264 264 264 264 264 264 265 266 267 266 266 265 266 266 264 262 261 260 259 259 258 257 258
265 265 264 263 263 262 262 261 261 261 261 261 261 261 261 261 261 262 262 262 262 262 262 263 263 263 264 264 264 264 264 266 266 265 264 262 261 260 259 259 259 258 258
265 264 263 262 261 261 261 260 260 260 260 260 260 260 260 260 261 261 261 261 261 261 262 262 262 262 263 263 264 264 265 265 265 264 263 263 262 261 260 260 259 258 258
264 264 263 263 262 261 260 259 259 259 259 259 259 259 259 259 260 260 260 260 261 261 262 262 262 262 262 263 263 264 264 264 263 263 263 262 262 261 260 260 259 259 259
Wind_Speed
32 31 32 30 28 31 32 28 26 25 21 14 10 12 16 16 15 13 12 12 12 11 11 11 10 9 10 10 9 9 9 9 7 6 11 14 17 16 18 19 21 20 18
29 29 28 29 31 29 29 30 27 21 14 11 13 16 17 17 15 15 14 14 14 15 14 14 13 13 13 13 12 12 12 12 10 12 10 11 15 15 18 20 22 20 18
23 27 27 32 32 30 28 24 18 13 10 13 16 17 17 16 15 16 15 15 17 17 16 17 16 16 17 17 17 16 15 14 14 11 11 11 12 15 15 17 19 22 19
26 30 34 26 31 30 23 18 13 11 11 14 15 15 15 15 16 16 17 18 18 19 19 19 19 21 21 20 19 19 18 17 15 14 16 16 13 13 14 13 16 19 28
31 27 28 27 23 17 12 10 10 10 11 13 15 15 15 17 18 18 19 20 21 22 22 21 23 23 22 22 22 23 21 18 16 15 16 13 14 11 10 11 17 20 28
27 26 22 16 13 9 7 8 9 11 13 14 14 14 17 19 19 20 22 23 23 23 24 25 25 24 24 24 24 24 25 25 21 16 15 14 15 12 11 12 15 16 7
23 18 14 9 6 5 7 10 12 12 13 14 15 17 18 19 20 21 21 24 25 27 28 28 28 28 28 28 27 26 25 25 24 20 17 17 14 13 13 13 13 14 18
13 10 6 5 5 6 8 10 11 13 15 15 17 18 19 21 20 22 23 25 28 30 30 30 30 30 31 30 31 33 33 33 30 27 25 25 23 19 14 12 15 19 25
4 3 5 8 8 8 10 12 13 15 16 17 18 18 20 23 22 23 24 25 28 33 33 33 33 34 34 31 28 32 33 36 35 29 23 23 16 13 10 14 16 11 9
4 6 6 7 8 10 10 12 13 16 19 19 20 21 22 24 23 25 24 25 30 33 35 36 37 37 35 32 31 30 31 32 33 31 25 20 17 18 15 15 14 10 8
5 5 4 5 6 9 12 13 16 17 18 19 21 23 24 25 27 27 27 27 32 31 29 32 35 37 33 30 31 34 36 30 33 28 29 25 21 18 16 15 14 12 8
9 8 7 6 7 8 10 11 13 15 17 20 23 26 26 26 27 26 25 26 27 29 30 32 37 39 33 29 31 34 32 28 30 29 26 23 20 18 16 15 14 14 14
12 12 11 9 8 9 11 12 14 14 16 19 22 25 30 31 30 29 28 26 25 28 31 30 31 31 30 29 30 30 30 30 31 30 28 24 21 16 14 12 12 13 15
17 16 14 13 12 11 11 12 14 16 18 21 25 25 27 31 31 29 26 25 24 26 26 27 30 29 32 32 32 30 29 32 36 35 28 21 16 14 12 11 11 12 15
22 22 22 22 22 21 19 19 20 17 17 20 22 22 24 26 28 24 25 27 29 32 30 30 30 28 24 25 26 30 33 34 32 30 25 20 15 13 11 10 11 11 9
29 29 28 27 26 25 26 28 22 15 19 15 16 17 23 23 25 27 29 29 29 30 30 29 28 25 26 25 26 29 31 34 33 31 24 18 15 13 12 11 10 9 9
27 26 27 27 27 27 28 28 30 33 25 21 15 18 20 23 25 26 27 28 28 29 28 30 31 29 28 27 26 27 29 35 31 28 23 20 18 17 15 11 9 8 8
26 27 27 26 26 27 27 26 25 24 25 35 34 27 24 24 24 26 27 28 26 22 25 28 30 31 26 28 27 29 26 28 32 31 27 25 23 21 15 12 9 8 7
29 30 29 29 28 28 28 29 27 23 21 22 27 31 34 29 29 23 22 22 25 25 24 26 27 30 30 26 29 28 29 34 33 33 30 27 23 19 14 10 8 7 6
30 30 30 30 32 33 32 29 27 25 23 23 23 26 29 29 25 26 25 25 25 26 27 27 26 26 25 24 22 21 25 26 28 28 27 25 21 17 12 10 10 9 8
32 33 33 33 33 31 28 27 26 25 23 23 24 26 29 30 27 25 25 24 25 26 28 28 28 29 27 25 25 24 24 23 26 28 27 23 21 18 15 13 12 11 8
30 31 32 32 32 32 31 29 26 23 24 25 28 28 29 26 25 27 27 27 28 28 28 29 30 30 28 24 25 24 24 26 29 29 27 25 22 19 17 14 13 10 7
31 32 33 33 31 31 29 31 30 29 28 28 28 29 28 27 27 28 29 30 30 31 31 30 33 31 28 23 21 21 24 27 30 28 26 25 23 20 18 17 15 11 8
31 32 32 33 33 32 30 29 27 27 28 28 29 29 29 30 30 31 31 32 32 32 33 33 29 24 21 18 14 15 19 22 22 22 23 25 23 21 19 17 15 11 9
29 29 30 31 32 31 31 31 30 30 28 28 29 30 31 32 33 33 34 33 33 33 35 30 24 18 14 11 11 13 14 16 20 22 22 21 22 21 19 17 16 13 10
30 30 30 31 32 32 31 28 27 28 29 30 30 30 30 31 31 32 33 32 32 34 32 25 19 13 7 7 9 12 14 18 21 21 21 22 22 20 18 17 15 12 9
Wind_Direction
181 181 182 180 180 174 165 160 165 172 173 186 207 211 193 196 197 199 205 208 211 212 214 213 212 213 213 215 220 223 225 223 241 274 270 293 303 306 311 317 319 321 318
171 169 167 164 159 157 156 158 184 175 184 210 216 196 197 204 207 212 214 218 223 226 226 224 225 223 227 228 231 236 241 240 238 260 279 291 291 300 309 311 319 318 311
154 152 148 147 143 145 171 172 184 192 203 211 201 202 206 213 219 225 227 231 235 238 239 237 235 234 234 234 236 239 244 244 247 251 276 279 287 302 305 304 313 316 314
140 135 140 155 153 171 174 173 195 212 202 203 212 215 219 226 231 234 237 239 243 244 245 245 245 243 243 241 240 243 242 243 245 251 262 270 282 290 292 302 313 316 314
135 143 148 155 162 171 175 187 200 202 206 216 224 226 231 237 240 243 246 248 249 250 250 251 252 252 253 250 247 246 242 241 243 248 260 268 275 281 295 308 307 310 314
144 141 142 153 172 172 180 196 203 213 221 226 233 240 245 250 253 252 251 253 256 259 260 260 259 258 255 250 250 253 251 241 239 238 257 262 276 273 286 299 306 316 316
139 138 152 169 188 195 200 206 216 228 237 243 245 248 253 258 259 260 258 261 261 262 263 264 265 262 260 256 253 246 242 242 246 255 252 257 267 270 287 291 296 296 289
141 154 175 223 252 229 220 225 238 245 252 258 263 264 265 267 266 267 266 262 264 267 267 269 268 269 269 264 258 255 246 243 243 242 250 262 268 272 278 284 289 293 296
149 232 283 287 274 258 244 245 259 267 268 267 270 273 273 277 278 276 272 263 264 268 273 272 271 271 269 265 254 255 252 253 252 249 250 254 248 247 259 277 284 300 304
307 300 285 262 251 250 262 274 279 280 282 283 283 281 280 281 283 281 277 268 265 269 272 275 275 274 270 266 252 245 243 245 251 245 233 229 237 257 262 268 277 275 289
352 350 350 308 293 286 288 291 293 292 288 286 286 287 286 286 286 284 281 274 273 265 263 267 275 280 271 255 249 243 240 245 248 244 239 238 247 253 260 265 273 274 262
27 27 15 355 328 310 305 303 298 297 297 298 295 292 290 290 290 293 291 279 271 265 264 268 274 278 271 259 254 250 249 242 238 227 226 232 242 251 259 264 273 279 279
36 35 28 18 4 346 333 322 310 304 297 293 293 296 305 312 309 307 307 300 283 274 271 271 272 274 272 268 261 259 253 244 226 215 219 229 239 252 256 266 278 284 291
36 32 25 18 11 2 351 338 323 317 317 313 309 306 310 310 313 320 317 311 305 297 295 290 282 275 268 265 263 253 253 245 229 219 219 225 232 239 250 264 279 290 298
33 29 23 19 14 7 2 357 346 341 331 316 312 313 309 308 316 311 304 300 300 299 300 291 282 276 267 261 255 248 238 238 226 221 214 213 218 227 236 248 262 275 276
27 23 19 14 10 8 1 350 359 350 340 320 310 303 304 299 301 303 301 297 294 293 290 270 268 257 254 251 243 244 236 231 224 216 209 206 205 215 224 235 250 263 276
29 23 18 14 10 6 2 0 350 342 346 343 329 323 318 313 312 305 302 301 298 296 284 281 275 262 246 246 236 229 230 232 226 215 208 204 203 211 212 220 225 239 261
27 24 18 14 10 5 2 357 352 348 335 336 339 337 332 326 320 315 311 308 302 293 283 284 282 284 254 239 231 227 221 217 221 217 209 204 204 206 203 212 215 232 255
23 20 15 12 9 7 4 360 356 347 335 326 330 338 339 334 328 325 322 311 302 297 294 291 292 293 294 251 238 229 216 220 217 208 203 200 199 199 202 205 207 221 235
21 21 19 14 11 8 5 359 353 346 338 333 330 328 328 331 330 324 322 319 315 309 307 303 301 298 298 292 259 230 214 212 205 196 193 194 193 194 195 194 195 201 217
20 18 17 15 12 7 1 355 349 342 334 330 326 329 334 332 323 320 318 316 312 310 307 304 305 303 299 289 274 240 222 208 200 191 186 185 186 183 186 189 189 193 202
21 18 17 14 10 5 1 356 347 340 336 333 331 330 335 330 325 321 318 315 312 308 305 303 301 299 296 286 271 246 219 204 196 186 182 181 181 177 177 175 178 182 187
21 18 15 11 6 1 357 354 348 343 336 331 329 328 330 327 323 320 317 317 316 313 311 308 307 305 302 289 270 251 224 206 191 184 178 174 172 168 169 171 174 174 177
19 16 12 8 4 359 352 344 339 336 332 331 329 326 323 323 321 320 319 319 319 317 317 319 318 311 301 284 258 228 210 192 183 179 176 168 164 165 165 167 168 167 166
16 11 8 4 359 353 347 344 339 334 329 327 325 325 324 323 321 321 321 321 320 320 324 326 323 314 295 264 216 190 179 176 170 166 164 162 161 161 162 162 162 164 163
9 6 2 357 353 349 342 334 329 328 327 325 322 320 318 318 317 318 319 319 320 321 326 328 325 313 278 219 184 174 163 160 159 159 159 159 157 156 156 157 161 163 164